RH
84 72 64 71 75 86 84 84 77 79 88 87 84 84 85 82 68 64 57 56 67 76 80 85 78 79 87 90 88 84 84 78 77
89 84 76 77 79 87 88 84 86 86 82 82 83 83 83 78 68 67 61 55 61 76 84 78 76 79 78 78 79 79 81 74 74
84 85 82 81 79 82 79 75 77 84 80 82 82 78 71 72 69 66 65 63 63 75 84 86 80 76 77 78 78 77 78 78 77
74 74 78 85 84 76 72 82 91 93 94 90 84 80 77 79 72 64 58 58 68 72 81 85 81 82 83 79 78 78 78 78 78
69 69 71 76 72 67 69 65 78 93 91 88 81 76 77 83 71 63 59 58 66 74 78 82 82 79 78 84 82 79 78 78 79
67 67 68 63 62 64 66 68 65 66 65 64 66 73 82 70 59 51 49 50 65 74 81 80 81 82 81 81 84 82 78 78 79
63 68 66 65 63 66 65 67 66 69 79 66 64 76 69 61 58 58 56 53 61 69 79 81 81 80 83 83 81 85 85 82 79
58 61 64 72 66 74 67 68 69 65 62 61 60 59 58 59 60 59 59 60 66 73 79 78 76 81 80 79 82 82 83 87 84
57 55 57 62 64 62 64 64 62 63 64 62 61 60 60 61 61 62 62 63 66 76 83 86 82 75 77 79 77 80 83 84 87
56 58 60 61 63 63 64 65 64 64 63 62 62 62 63 64 65 66 67 66 68 71 81 89 90 85 78 74 76 79 80 83 84
67 68 66 66 66 65 66 66 67 68 66 64 63 62 62 61 60 62 64 65 67 70 73 85 92 94 88 84 77 74 79 80 81
73 72 72 69 67 68 68 69 70 71 70 70 70 66 61 60 60 62 63 63 64 64 68 74 86 91 94 89 87 85 79 76 78
73 72 69 71 73 75 76 73 67 63 62 62 65 68 64 62 60 62 61 61 64 65 66 68 71 80 85 88 89 88 88 88 82
77 75 70 64 63 59 58 53 53 52 50 50 49 51 52 53 52 53 55 56 59 64 66 65 68 69 70 78 84 88 91 90 91
52 48 44 44 44 42 42 41 42 42 39 39 40 39 39 42 44 53 48 54 53 44 46 54 59 64 65 67 75 83 86 90 90
44 43 41 42 41 41 44 44 47 45 44 43 43 41 41 36 37 42 38 36 36 37 36 40 46 52 60 63 58 72 81 84 86
41 44 43 43 43 43 44 42 43 42 39 40 41 44 38 35 38 32 36 35 37 40 40 41 45 46 47 47 47 52 60 65 72
36 38 37 37 37 36 36 34 35 37 35 34 39 44 43 46 38 36 35 35 33 36 38 33 34 38 41 42 42 44 52 65 67
31 31 32 32 30 30 31 28 31 31 36 36 32 37 41 51 50 33 35 31 28 26 30 30 31 35 40 44 48 53 62 80 82
30 27 27 27 28 29 30 30 31 35 39 39 37 38 41 43 42 44 36 31 28 28 30 33 35 36 38 48 55 49 53 64 68
Wind_Speed
6 1 1 5 6 5 5 5 5 6 8 8 9 11 11 11 12 12 10 10 10 8 8 9 11 13 12 11 12 13 12 12 12
4 3 3 5 6 5 6 6 6 6 7 8 9 11 12 13 14 13 13 12 11 12 12 14 14 14 15 15 14 14 14 13 13
2 4 5 7 6 6 6 7 9 9 9 9 9 10 12 13 14 15 15 14 14 14 15 16 15 16 16 16 16 15 15 15 14
5 6 7 7 8 9 10 9 10 11 11 11 12 14 15 15 16 16 17 16 16 17 16 17 18 19 19 18 18 17 17 17 17
11 11 11 12 11 11 12 12 12 12 13 14 15 17 19 17 17 17 18 19 18 19 19 19 20 22 22 22 21 21 21 20 20
7 8 12 13 12 12 13 13 13 14 16 16 15 15 14 15 16 16 17 19 19 21 22 23 23 24 25 26 24 25 24 24 23
7 9 12 13 13 14 14 13 13 14 13 13 10 12 12 14 16 18 19 22 21 22 24 25 26 27 27 28 29 27 28 27 27
6 6 7 7 9 9 9 11 12 11 13 13 14 16 17 18 18 20 22 25 23 24 25 26 28 29 30 30 30 31 31 31 32
6 7 7 7 7 8 10 11 11 13 15 16 17 18 20 20 21 22 24 27 28 27 28 28 29 30 32 32 33 35 35 35 34
6 7 8 8 8 10 11 12 13 15 16 17 18 20 21 22 23 24 26 28 30 32 29 30 32 33 33 34 36 37 38 39 39
6 8 8 9 9 11 12 13 15 16 16 18 19 21 22 23 24 24 26 28 30 32 33 30 31 33 35 36 37 39 40 41 42
7 8 8 9 10 12 13 14 15 17 18 19 20 22 22 23 25 26 27 27 27 28 29 29 29 30 32 35 37 39 41 42 43
6 7 8 10 11 11 12 13 14 15 16 18 18 20 21 23 24 26 27 23 23 24 26 27 27 28 30 31 34 38 40 42 44
5 7 8 9 8 9 11 12 14 15 17 18 18 19 21 23 25 24 25 24 23 22 22 26 28 30 31 30 31 33 36 40 42
9 8 9 10 9 10 12 14 15 17 19 21 21 22 23 25 26 24 21 20 21 26 27 28 27 29 30 30 31 30 31 34 38
12 10 10 11 11 12 13 15 17 17 19 20 20 19 29 20 22 19 28 30 30 25 27 31 27 28 24 27 33 32 32 32 34
12 13 12 13 14 13 15 16 17 17 18 18 19 6 15 13 30 34 26 27 28 23 27 29 28 29 30 32 32 33 35 36 38
13 13 13 13 13 14 15 16 16 16 17 16 11 6 6 12 18 23 24 24 31 25 27 33 33 32 33 35 37 37 31 31 37
13 13 13 12 12 12 14 14 15 15 15 16 16 18 20 11 11 11 24 24 25 31 29 30 32 32 30 29 30 29 27 23 26
13 13 12 12 11 12 13 14 15 14 16 16 17 18 19 20 12 14 9 24 23 27 29 25 31 36 37 31 29 33 31 27 27
Wind_Direction
195 298 342 357 341 342 334 336 329 306 306 308 311 303 305 304 306 298 286 280 275 272 261 271 273 269 273 273 272 273 272 268 260
212 227 286 330 344 335 330 325 315 312 311 301 299 296 298 302 294 288 284 274 271 267 267 262 267 260 262 262 263 264 267 266 257
260 218 280 314 330 326 316 311 300 290 302 299 303 300 282 286 285 278 278 271 263 263 263 263 262 259 260 258 258 256 255 256 254
297 298 294 296 301 300 296 289 297 289 282 284 290 290 289 283 278 275 273 270 260 259 260 258 259 263 255 253 255 257 256 255 252
271 289 291 282 293 283 285 281 281 283 279 274 276 282 283 283 271 266 263 262 257 258 257 257 255 257 260 255 250 253 255 254 252
246 261 273 278 286 289 283 285 282 276 281 284 281 280 274 272 271 269 268 265 259 261 259 257 255 254 253 255 256 250 251 251 251
237 251 280 285 284 291 291 297 298 290 280 281 284 260 267 270 272 269 266 263 259 258 259 259 257 256 255 254 255 255 249 249 249
259 267 277 288 301 295 298 292 288 279 281 284 278 276 277 274 272 271 270 267 262 260 258 258 257 255 254 254 253 253 253 250 246
269 274 281 282 281 283 283 282 284 282 281 280 280 280 279 278 277 276 277 276 273 264 263 260 258 256 255 254 252 251 251 252 251
281 284 287 286 287 286 283 284 288 287 286 286 285 283 282 281 279 278 280 280 279 276 267 267 263 260 257 255 253 252 251 250 249
285 286 285 289 292 292 292 295 293 290 292 293 293 292 290 286 284 281 279 279 278 278 277 269 267 264 262 261 258 255 253 251 250
287 295 298 302 304 303 301 301 308 311 307 304 306 299 296 294 293 290 287 287 286 284 281 277 272 271 269 267 264 260 257 255 254
305 308 318 326 319 321 322 319 314 315 315 313 313 305 301 296 295 294 290 284 284 288 291 290 285 278 276 274 271 269 265 259 255
5 13 9 355 349 344 344 334 327 321 316 311 305 303 301 299 296 296 294 291 287 278 280 285 282 284 285 280 276 274 272 272 268
48 38 22 12 1 353 344 335 330 325 321 317 314 307 303 294 294 286 303 309 310 311 301 293 282 280 280 282 281 277 276 274 273
39 27 15 7 358 350 346 340 336 330 330 322 315 305 289 305 311 336 325 317 310 305 306 301 301 294 295 288 287 279 277 278 277
31 24 12 4 356 351 348 344 338 328 334 324 318 322 306 323 331 317 311 304 305 312 314 315 318 318 311 303 298 296 285 282 280
28 19 11 1 356 350 347 344 340 328 329 336 325 321 321 317 309 310 297 322 314 310 315 312 307 305 301 299 298 296 300 298 288
24 14 7 360 355 351 345 342 337 333 325 328 322 312 307 308 308 295 308 299 314 306 302 302 300 296 295 296 299 304 315 318 310
15 8 3 1 356 348 343 339 336 331 328 325 318 309 305 305 309 307 307 299 296 298 297 301 305 300 294 294 300 300 305 306 303